sat.trackr.live / text

‹ back to catalog

YAM-11

NORAD 68991 · 2026-100M

PAYLOAD ACTIVE UNKNOWN

§ Identity

Operator
Country
US
Launch date
2026-05-03
Launch site
AFWTR
Launch vehicle
Mass (kg)
RCS (m²)

External: N2YO · Heavens-Above · Gunter

§ Orbital elements

Epoch: 2026-05-25T03:24:08.418240Z

Period
96.58 min
Inclination
97.7389°
Eccentricity
0.0002335
Mean motion
14.91058976 rev/d
Perigee alt
593.0 km
Apogee alt
596.3 km
Semi-major
6,972.8 km
B*
1.4778e-4
RAAN
43.0081°
Arg perigee
197.1083°
Mean anomaly
163.0057°
Rev number
326

§ Raw data

YAM-111 68991U 26100M   26145.14176410  .00001408  00000+0  14778-3 0  99962 68991  97.7389  43.0081 0002335 197.1083 163.0057 14.91058976  3269

JSON: /api/v1/satellites/68991 · /tle

For live sub-satellite position, see the globe view (requires WebGL).

§ Visibility from observer

Set your observer location to see the next 7 days of passes ≥ 10°. The values pass through the URL so the page stays shareable.

No JS? Fill the form by hand. The geolocation button needs JavaScript.